Regional Weather Roundup
Issued by NWS

Home | Current Version | Previous Version | Graphics & Text | Print | Product List | Glossary On
Versions: 1 2 3 4 5 6 7 8 9 10 11 12 13 14 15 16 17 18 19 20 21 22 23 24 25 26 27 28 29 30 31 32 33 34 35 36 37 38 39 40 41 42 43 44 45 46 47 48 49 50
000
ASUS43 KLSX 011059
RWRMO

WEATHER SUMMARY FOR MISSOURI
NATIONAL WEATHER SERVICE SPRINGFIELD MO
500 AM CST SUN FEB 01 2015

NOTE: "FAIR" INDICATES FEW OR NO CLOUDS BELOW 12,000 FEET WITH NO
       SIGNIFICANT WEATHER AND/OR OBSTRUCTIONS TO VISIBILITY.
       CURRENT SKY AND/OR WEATHER CONDITIONS ARE NOT AVAILABLE FOR
       CHILLICOTHE AND FARMINGTON.

MOZ001>031-035>038-043-044-053-054-011200-
...NORTHERN AND WESTERN MISSOURI...

CITY           SKY/WX    TMP DP  RH WIND       PRES   REMARKS
KANSAS CTY INT LGT SNOW  32  32 100 SE3       29.72F VSB 1
KANSAS C DTWN  LGT RAIN  34  32  92 E3        29.73F
LEE`S SUMMIT   MIX PCPN  33  32  96 SE3       29.72F FOG
ST JOSEPH      LGT SNOW  32  32 100 CALM      29.75F FOG
CHILLICOTHE      N/A     33  32  96 SE5       29.77F WCI  29
KIRKSVILLE     LGT SNOW  32  32 100 SE10      29.77F VSB 1   WCI  24

$$
MOZ066>068-077>081-088>096-101>105-011200-
...SOUTHWEST MISSOURI...

CITY           SKY/WX    TMP DP  RH WIND       PRES   REMARKS
SPRINGFIELD    LGT RAIN  37  36  96 S7        29.74F FOG
JOPLIN         CLOUDY    41  40  96 SW9       29.75F FOG

$$
MOZ032>034-039>042-045>050-055>058-069>072-011200-
...CENTRAL MISSOURI...

CITY           SKY/WX    TMP DP  RH WIND       PRES   REMARKS
COLUMBIA       LGT RAIN  33  32  96 SE10      29.77F FOG     WCI  25
JEFFERSON CITY LGT RAIN  34  32  92 E7        29.80F FOG     WCI  28
ROLLA          RAIN      34  33  96 SE7       29.78F FOG     WCI  28
SEDALIA        MIX PCPN  34  32  92 SE9       29.76F FOG     WCI  27
OSAGE BEACH    CLOUDY    36  34  93 E3        29.78F

$$
MOZ051-052-059>065-011200-
...EAST CENTRAL MISSOURI...

CITY           SKY/WX    TMP DP  RH WIND       PRES   REMARKS
ST LOUIS INTL  HVY RAIN  35  31  85 E8        29.86F FOG     WCI  29
SPIRIT OF STL  RAIN      34  33  96 CALM      29.86S FOG
ST CHARLES     LGT RAIN  34  32  92 E12       29.86F FOG     WCI  25

$$
MOZ072>076-082>087-097>100-106>115-011200-
...SOUTH CENTRAL AND SOUTHEAST MISSOURI...

CITY           SKY/WX    TMP DP  RH WIND       PRES   REMARKS
CAPE GIRARDEAU CLOUDY    44  31  60 S12       29.88F
FARMINGTON     CLOUDY    36  32  87 S14       29.82F WCI  27
POPLAR BLUFF   LGT RAIN  41  34  76 S8        29.84F
WEST PLAINS    RAIN      36  33  89 S8        29.78F FOG     WCI  30

$$



USA.gov is the U.S. government's official web portal to all federal, state and local government web resources and services.